This is the latest recevied weather packets stored in our database for station/object W1LBM. If no packets are shown the sender has not sent any weather packets the latest 10 day(s).
| Time | Temp. | Humidity | Pressure | Rain* | Wind** | Luminosity | Snow |
|---|---|---|---|---|---|---|---|
| 1778085265 | 21.11° C | 63% | 1012.6 hPa | 0 mm | - | 261 W/m² | - |
| 1778084960 | 21.11° C | 63% | 1012.6 hPa | 0 mm | - | 289 W/m² | - |
| 1778084659 | 21.11° C | 63% | 1012.9 hPa | 0 mm | - | 329 W/m² | - |
| 1778084356 | 21.11° C | 63% | 1012.9 hPa | 0 mm | - | 279 W/m² | - |
| 1778084054 | 21.11° C | 63% | 1012.7 hPa | 0 mm | - | 308 W/m² | - |
| 1778083751 | 21.11° C | 63% | 1012.9 hPa | 0 mm | - | 374 W/m² | - |
| 1778083448 | 21.11° C | 66% | 1013.1 hPa | 0 mm | - | 293 W/m² | - |
| 1778083146 | 21.67° C | 64% | 1012.9 hPa | 0 mm | - | 271 W/m² | - |
| 1778082842 | 21.11° C | 62% | 1013.1 hPa | 0 mm | - | 302 W/m² | - |
| 1778081719 | 21.11° C | 64% | 1013.1 hPa | 0 mm | - | 303 W/m² | - |
| 1778081417 | 21.67° C | 62% | 1013.2 hPa | 0 mm | - | 296 W/m² | - |
| 1778081114 | 21.67° C | 65% | 1013.3 hPa | 0 mm | - | 601 W/m² | - |
| 1778080812 | 21.11° C | 65% | 1013.5 hPa | 0 mm | - | 448 W/m² | - |
| 1778080509 | 21.67° C | 64% | 1013.5 hPa | 0 mm | - | 501 W/m² | - |
| 1778080206 | 21.11° C | 65% | 1013.4 hPa | 0 mm | - | 544 W/m² | - |
| 1778079902 | 20.56° C | 66% | 1013.4 hPa | 0 mm | - | 617 W/m² | - |
| 1778079599 | 20° C | 67% | 1013.7 hPa | 0 mm | - | 497 W/m² | - |
| 1778079295 | 20° C | 67% | 1013.5 hPa | 0 mm | - | 317 W/m² | - |
| 1778078994 | 20.56° C | 67% | 1013.5 hPa | 0 mm | - | 314 W/m² | - |
| 1778078690 | 20° C | 67% | 1013.4 hPa | 0 mm | - | 285 W/m² | - |
| 1778078388 | 20.56° C | 67% | 1013.6 hPa | 0 mm | - | 244 W/m² | - |
| 1778078085 | 20° C | 66% | 1013.4 hPa | 0 mm | - | 276 W/m² | - |
| 1778077783 | 20° C | 66% | 1013.3 hPa | 0 mm | - | 312 W/m² | - |
| 1778077481 | 20.56° C | 65% | 1013.4 hPa | 0 mm | - | 261 W/m² | - |
| 1778077179 | 20.56° C | 66% | 1013.2 hPa | 0 mm | - | 329 W/m² | - |
* Rain latest hour (hover to see other rain measurements)
** Current wind speed in m/s (hover to see current wind gust speed)